TimePST,TemperatureF,Dew PointF,Humidity,Sea Level PressureIn,VisibilityMPH,Wind Direction,Wind SpeedMPH,Gust SpeedMPH,PrecipitationIn,Events,Conditions,WindDirDegrees,DateUTC
12:10 AM,32.0,32.0,100,30.00,6.0,Calm,Calm,-,N/A,,Overcast,0,2012-12-24 08:10:00
12:30 AM,32.0,32.0,100,30.01,1.8,West,3.5,-,N/A,,Overcast,280,2012-12-24 08:30:00
12:50 AM,32.0,32.0,100,30.02,2.5,Calm,Calm,-,N/A,,Overcast,0,2012-12-24 08:50:00
1:10 AM,32.0,32.0,100,30.03,4.0,West,3.5,-,N/A,,Overcast,280,2012-12-24 09:10:00
1:30 AM,32.0,32.0,100,30.03,7.0,Calm,Calm,-,N/A,,Overcast,0,2012-12-24 09:30:00
1:50 AM,32.0,32.0,100,30.04,4.0,Calm,Calm,-,N/A,,Overcast,0,2012-12-24 09:50:00
2:10 AM,32.0,32.0,100,30.05,7.0,Calm,Calm,-,N/A,,Overcast,0,2012-12-24 10:10:00
2:30 AM,32.0,32.0,100,30.06,4.0,Calm,Calm,-,N/A,,Overcast,0,2012-12-24 10:30:00
2:50 AM,32.0,32.0,100,30.07,9.0,SW,3.5,-,N/A,,Overcast,230,2012-12-24 10:50:00
3:10 AM,32.0,32.0,100,30.08,9.0,Calm,Calm,-,N/A,,Overcast,0,2012-12-24 11:10:00
3:30 AM,32.0,32.0,100,30.09,5.0,Calm,Calm,-,N/A,,Overcast,0,2012-12-24 11:30:00
3:50 AM,32.0,32.0,100,30.09,3.0,West,3.5,-,N/A,,Overcast,270,2012-12-24 11:50:00
4:10 AM,32.0,32.0,100,30.10,8.0,NE,3.5,-,N/A,,Overcast,40,2012-12-24 12:10:00
4:30 AM,32.0,32.0,100,30.11,10.0,North,3.5,-,N/A,,Overcast,350,2012-12-24 12:30:00
4:50 AM,32.0,32.0,100,30.11,10.0,Calm,Calm,-,N/A,,Mostly Cloudy,0,2012-12-24 12:50:00
5:10 AM,32.0,32.0,100,30.12,5.0,Calm,Calm,-,N/A,,Scattered Clouds,0,2012-12-24 13:10:00
5:30 AM,32.0,32.0,100,30.13,10.0,WNW,3.5,-,N/A,,Mostly Cloudy,300,2012-12-24 13:30:00
5:50 AM,32.0,30.2,93,30.14,10.0,Calm,Calm,-,N/A,,Mostly Cloudy,0,2012-12-24 13:50:00
6:10 AM,32.0,32.0,100,30.15,10.0,Calm,Calm,-,N/A,,Overcast,0,2012-12-24 14:10:00
6:30 AM,32.0,32.0,100,30.16,10.0,West,3.5,-,N/A,,Overcast,280,2012-12-24 14:30:00
6:50 AM,32.0,32.0,100,30.17,10.0,Calm,Calm,-,N/A,,Overcast,0,2012-12-24 14:50:00
7:10 AM,32.0,28.4,87,30.18,10.0,WNW,3.5,-,N/A,,Overcast,300,2012-12-24 15:10:00
7:30 AM,32.0,28.4,87,30.19,10.0,WNW,3.5,-,N/A,,Overcast,290,2012-12-24 15:30:00
7:50 AM,30.2,28.4,93,30.20,10.0,West,5.8,-,N/A,,Overcast,270,2012-12-24 15:50:00
8:10 AM,30.2,28.4,93,30.22,10.0,West,4.6,-,N/A,,Overcast,270,2012-12-24 16:10:00
8:30 AM,32.0,28.4,87,30.23,10.0,West,3.5,-,N/A,,Overcast,280,2012-12-24 16:30:00
8:50 AM,32.0,28.4,87,30.24,10.0,West,3.5,-,N/A,,Overcast,270,2012-12-24 16:50:00
9:10 AM,32.0,28.4,87,30.25,10.0,WNW,4.6,-,N/A,,Overcast,290,2012-12-24 17:10:00
9:30 AM,32.0,28.4,87,30.26,10.0,Calm,Calm,-,N/A,,Overcast,0,2012-12-24 17:30:00
9:50 AM,32.0,28.4,87,30.27,10.0,Calm,Calm,-,N/A,,Mostly Cloudy,0,2012-12-24 17:50:00
10:10 AM,32.0,28.4,87,30.27,10.0,Calm,Calm,-,N/A,,Clear,0,2012-12-24 18:10:00
10:30 AM,32.0,26.6,80,30.27,10.0,Calm,Calm,-,N/A,,Partly Cloudy,0,2012-12-24 18:30:00
10:50 AM,33.8,26.6,75,30.26,10.0,SSE,3.5,-,N/A,,Partly Cloudy,160,2012-12-24 18:50:00
11:10 AM,33.8,26.6,75,30.26,10.0,Calm,Calm,-,N/A,,Partly Cloudy,0,2012-12-24 19:10:00
11:30 AM,35.6,28.4,75,30.25,10.0,Calm,Calm,-,N/A,,Clear,0,2012-12-24 19:30:00
11:50 AM,35.6,28.4,75,30.25,10.0,Calm,Calm,-,N/A,,Clear,0,2012-12-24 19:50:00
12:10 PM,35.6,28.4,75,30.25,10.0,Calm,Calm,-,N/A,,Clear,0,2012-12-24 20:10:00
12:30 PM,37.4,28.4,70,30.25,10.0,Calm,Calm,-,N/A,,Clear,0,2012-12-24 20:30:00
12:50 PM,37.4,28.4,70,30.23,10.0,Calm,Calm,-,N/A,,Clear,0,2012-12-24 20:50:00
1:10 PM,37.4,28.4,70,30.22,10.0,Calm,Calm,-,N/A,,Clear,0,2012-12-24 21:10:00
1:30 PM,37.4,28.4,70,30.22,10.0,Calm,Calm,-,N/A,,Clear,0,2012-12-24 21:30:00
1:50 PM,37.4,28.4,70,30.22,10.0,Calm,Calm,-,N/A,,Clear,0,2012-12-24 21:50:00
2:10 PM,39.2,28.4,65,30.21,10.0,Calm,Calm,-,N/A,,Clear,0,2012-12-24 22:10:00
2:30 PM,37.4,28.4,70,30.22,10.0,Calm,Calm,-,N/A,,Clear,0,2012-12-24 22:30:00
2:50 PM,37.4,28.4,70,30.21,10.0,Calm,Calm,-,N/A,,Clear,0,2012-12-24 22:50:00
3:10 PM,35.6,32.0,87,30.22,10.0,Calm,Calm,-,N/A,,Clear,0,2012-12-24 23:10:00
3:30 PM,35.6,32.0,87,30.22,10.0,Calm,Calm,-,N/A,,Clear,0,2012-12-24 23:30:00
3:50 PM,33.8,32.0,93,30.21,10.0,West,3.5,-,N/A,,Clear,270,2012-12-24 23:50:00
4:10 PM,33.8,32.0,93,30.22,10.0,Calm,Calm,-,N/A,,Clear,0,2012-12-25 00:10:00
4:30 PM,33.8,32.0,93,30.22,10.0,WNW,5.8,-,N/A,,Clear,290,2012-12-25 00:30:00
4:50 PM,32.0,32.0,100,30.21,10.0,West,3.5,-,N/A,,Clear,270,2012-12-25 00:50:00
5:10 PM,32.0,32.0,100,30.21,10.0,Calm,Calm,-,N/A,,Partly Cloudy,0,2012-12-25 01:10:00
5:30 PM,32.0,32.0,100,30.22,9.0,Calm,Calm,-,N/A,,Scattered Clouds,0,2012-12-25 01:30:00
5:50 PM,32.0,32.0,100,30.22,10.0,Calm,Calm,-,N/A,,Mostly Cloudy,0,2012-12-25 01:50:00
6:10 PM,32.0,32.0,100,30.22,9.0,Calm,Calm,-,N/A,,Mostly Cloudy,0,2012-12-25 02:10:00
6:30 PM,32.0,32.0,100,30.22,4.0,Calm,Calm,-,N/A,,Mostly Cloudy,0,2012-12-25 02:30:00
6:50 PM,32.0,32.0,100,30.22,8.0,Calm,Calm,-,N/A,,Mostly Cloudy,0,2012-12-25 02:50:00
7:10 PM,32.0,32.0,100,30.22,8.0,Calm,Calm,-,N/A,,Partly Cloudy,0,2012-12-25 03:10:00
7:30 PM,30.2,30.2,100,30.21,3.0,West,3.5,-,N/A,,Clear,270,2012-12-25 03:30:00
7:50 PM,30.2,30.2,100,30.21,5.0,NNW,3.5,-,N/A,,Partly Cloudy,330,2012-12-25 03:50:00
8:10 PM,30.2,30.2,100,30.21,10.0,West,5.8,-,N/A,,Scattered Clouds,280,2012-12-25 04:10:00
8:30 PM,30.2,30.2,100,30.21,6.0,Calm,Calm,-,N/A,,Mostly Cloudy,0,2012-12-25 04:30:00
8:50 PM,28.4,28.4,100,30.21,7.0,Calm,Calm,-,N/A,,Scattered Clouds,0,2012-12-25 04:50:00
9:10 PM,30.2,28.4,93,30.21,2.5,Calm,Calm,-,N/A,,Mostly Cloudy,0,2012-12-25 05:10:00
9:30 PM,30.2,30.2,100,30.20,3.0,Calm,Calm,-,N/A,,Overcast,0,2012-12-25 05:30:00
9:50 PM,30.2,30.2,100,30.20,5.0,West,3.5,-,N/A,,Overcast,270,2012-12-25 05:50:00
10:10 PM,32.0,30.2,93,30.20,10.0,West,3.5,-,N/A,,Mostly Cloudy,270,2012-12-25 06:10:00
10:30 PM,32.0,30.2,93,30.20,5.0,Calm,Calm,-,N/A,,Scattered Clouds,0,2012-12-25 06:30:00
10:50 PM,32.0,30.2,93,30.19,6.0,Calm,Calm,-,N/A,,Mostly Cloudy,0,2012-12-25 06:50:00
11:10 PM,32.0,30.2,93,30.19,5.0,Calm,Calm,-,N/A,,Overcast,0,2012-12-25 07:10:00
11:30 PM,32.0,30.2,93,30.18,9.0,Calm,Calm,-,N/A,,Mostly Cloudy,0,2012-12-25 07:30:00
11:50 PM,32.0,30.2,93,30.18,7.0,West,3.5,-,N/A,,Mostly Cloudy,260,2012-12-25 07:50:00